Hourly Weather Paro

Today, 12 August, Wednesday

Time Temperature Precipitation Wind Pressure Humidity
00:00 +16°C° 0 mm 0 mps 560 mmHg 97%
01:00 +15°C° 0 mm 0 mps 560 mmHg 96%
02:00 +15°C° 0 mm 0 mps 559 mmHg 96%
03:00 +16°C° 0 mm 1 mps 559 mmHg 95%
04:00 +15°C° 0 mm 0 mps 559 mmHg 94%
05:00 +15°C° 0 mm 0 mps 559 mmHg 94%
06:00 +15°C° 0 mm 0 mps 559 mmHg 93%
07:00 +19°C° 0 mm 1 mps 561 mmHg 87%
08:00 +21°C° 0 mm 1 mps 562 mmHg 82%
09:00 +23°C° 0 mm 1 mps 563 mmHg 76%
10:00 +23°C° 0.4 mm 2 mps 563 mmHg 80%
11:00 +23°C° 0.4 mm 2 mps 563 mmHg 84%
12:00 +21°C° 0.4 mm 2 mps 562 mmHg 88%
13:00 +21°C° 0.6 mm 2 mps 562 mmHg 87%
14:00 +23°C° 0.6 mm 2 mps 561 mmHg 86%
15:00 +23°C° 0.6 mm 2 mps 561 mmHg 86%
16:00 +22°C° 0.3 mm 1 mps 561 mmHg 89%
17:00 +21°C° 0.3 mm 1 mps 560 mmHg 92%
18:00 +21°C° 0.3 mm 1 mps 560 mmHg 95%
19:00 +20°C° 0.2 mm 1 mps 560 mmHg 96%
20:00 +20°C° 0.2 mm 1 mps 561 mmHg 97%
21:00 +17°C° 0.2 mm 0 mps 561 mmHg 98%
22:00 +17°C° 0.2 mm 0 mps 561 mmHg 98%
23:00 +17°C° 0.2 mm 0 mps 561 mmHg 98%

Tomorrow, 13 August, Thursday

Time Temperature Precipitation Wind Pressure Humidity
00:00 +17°C° 0.2 mm 0 mps 561 mmHg 98%
01:00 +17°C° 0.1 mm 0 mps 561 mmHg 98%
02:00 +17°C° 0.1 mm 0 mps 560 mmHg 98%
03:00 +17°C° 0.1 mm 0 mps 560 mmHg 98%
04:00 +17°C° 0.1 mm 0 mps 560 mmHg 98%
05:00 +17°C° 0.1 mm 0 mps 560 mmHg 97%
06:00 +17°C° 0.1 mm 0 mps 560 mmHg 97%
07:00 +17°C° 0.6 mm 0 mps 560 mmHg 95%
08:00 +20°C° 0.6 mm 1 mps 561 mmHg 94%
09:00 +20°C° 0.6 mm 1 mps 562 mmHg 93%
10:00 +21°C° 0.9 mm 1 mps 562 mmHg 92%
11:00 +20°C° 0.9 mm 2 mps 562 mmHg 90%
12:00 +21°C° 0.9 mm 2 mps 562 mmHg 89%
13:00 +20°C° 0.6 mm 2 mps 561 mmHg 91%
14:00 +21°C° 0.6 mm 1 mps 560 mmHg 94%
15:00 +20°C° 0.6 mm 1 mps 559 mmHg 96%
16:00 +20°C° 0.2 mm 1 mps 559 mmHg 96%
17:00 +20°C° 0.2 mm 1 mps 559 mmHg 95%
18:00 +18°C° 0.2 mm 0 mps 559 mmHg 95%
19:00 +17°C° 0 mm 0 mps 559 mmHg 96%
20:00 +17°C° 0 mm 0 mps 559 mmHg 97%
21:00 +16°C° 0 mm 0 mps 559 mmHg 98%
22:00 +16°C° 0.1 mm 0 mps 559 mmHg 98%
23:00 +16°C° 0.1 mm 0 mps 559 mmHg 98%

Day after tomorrow, 14 August, Friday

Time Temperature Precipitation Wind Pressure Humidity
00:00 +16°C° 0.1 mm 0 mps 560 mmHg 98%
01:00 +16°C° 0.4 mm 0 mps 559 mmHg 98%
02:00 +16°C° 0.4 mm 0 mps 559 mmHg 98%
03:00 +16°C° 0.4 mm 0 mps 559 mmHg 99%
04:00 +16°C° 0.7 mm 0 mps 559 mmHg 99%
05:00 +16°C° 0.7 mm 0 mps 559 mmHg 99%
06:00 +16°C° 0.7 mm 0 mps 559 mmHg 99%
07:00 +17°C° 0.3 mm 0 mps 559 mmHg 97%
08:00 +17°C° 0.3 mm 0 mps 560 mmHg 96%
09:00 +18°C° 0.3 mm 0 mps 560 mmHg 95%
10:00 +20°C° 0.5 mm 1 mps 560 mmHg 93%
11:00 +21°C° 0.5 mm 1 mps 560 mmHg 92%
12:00 +21°C° 0.5 mm 2 mps 560 mmHg 91%
13:00 +21°C° 0.6 mm 1 mps 559 mmHg 92%
14:00 +21°C° 0.6 mm 1 mps 559 mmHg 93%
15:00 +21°C° 0.6 mm 1 mps 558 mmHg 95%
16:00 +21°C° 0.5 mm 1 mps 558 mmHg 95%
17:00 +20°C° 0.5 mm 1 mps 558 mmHg 96%
18:00 +20°C° 0.5 mm 1 mps 557 mmHg 97%
19:00 +20°C° 0.3 mm 1 mps 558 mmHg 98%
20:00 +19°C° 0.3 mm 1 mps 558 mmHg 98%
21:00 +19°C° 0.3 mm 1 mps 559 mmHg 99%
22:00 +19°C° 0.4 mm 1 mps 559 mmHg 99%
23:00 +19°C° 0.4 mm 1 mps 559 mmHg 99%

15 August, Saturday

Time Temperature Precipitation Wind Pressure Humidity
00:00 +19°C° 0.4 mm 1 mps 559 mmHg 99%
01:00 +18°C° 1.2 mm 1 mps 558 mmHg 99%
02:00 +16°C° 1.2 mm 0 mps 558 mmHg 99%
03:00 +16°C° 1.2 mm 0 mps 558 mmHg 99%
04:00 +16°C° 0.8 mm 0 mps 558 mmHg 99%
05:00 +16°C° 0.8 mm 0 mps 558 mmHg 99%
06:00 +16°C° 0.8 mm 0 mps 558 mmHg 98%
07:00 +16°C° 0.5 mm 0 mps 559 mmHg 98%
08:00 +17°C° 0.5 mm 0 mps 559 mmHg 97%
09:00 +17°C° 0.5 mm 0 mps 559 mmHg 97%
10:00 +18°C° 0.3 mm 0 mps 560 mmHg 92%
11:00 +22°C° 0.3 mm 1 mps 560 mmHg 88%
12:00 +23°C° 0.3 mm 1 mps 561 mmHg 84%
13:00 +23°C° 0.6 mm 1 mps 560 mmHg 87%
14:00 +21°C° 0.6 mm 2 mps 560 mmHg 89%
15:00 +21°C° 0.6 mm 2 mps 559 mmHg 92%
16:00 +20°C° 0.6 mm 2 mps 559 mmHg 94%
17:00 +21°C° 0.6 mm 1 mps 558 mmHg 96%
18:00 +20°C° 0.6 mm 1 mps 558 mmHg 98%
19:00 +19°C° 0.5 mm 1 mps 559 mmHg 98%
20:00 +17°C° 0.5 mm 0 mps 559 mmHg 98%
21:00 +17°C° 0.5 mm 0 mps 560 mmHg 98%
22:00 +17°C° 0.4 mm 0 mps 560 mmHg 98%
23:00 +17°C° 0.4 mm 0 mps 560 mmHg 98%

16 August, Sunday

Time Temperature Precipitation Wind Pressure Humidity
00:00 +17°C° 0.4 mm 0 mps 560 mmHg 98%
01:00 +17°C° 0.6 mm 0 mps 559 mmHg 98%
02:00 +17°C° 0.6 mm 0 mps 559 mmHg 98%
03:00 +16°C° 0.6 mm 0 mps 559 mmHg 98%
04:00 +16°C° 0.6 mm 0 mps 559 mmHg 98%
05:00 +17°C° 0.6 mm 0 mps 559 mmHg 97%
06:00 +17°C° 0.6 mm 0 mps 559 mmHg 97%
07:00 +17°C° 0.2 mm 0 mps 560 mmHg 95%
08:00 +20°C° 0.2 mm 1 mps 560 mmHg 93%
09:00 +21°C° 0.2 mm 1 mps 561 mmHg 92%
10:00 +22°C° 0.6 mm 1 mps 561 mmHg 90%
11:00 +22°C° 0.6 mm 1 mps 561 mmHg 89%
12:00 +23°C° 0.6 mm 1 mps 561 mmHg 87%
13:00 +23°C° 1 mm 1 mps 560 mmHg 89%
14:00 +23°C° 1 mm 2 mps 560 mmHg 91%
15:00 +21°C° 1 mm 2 mps 559 mmHg 93%
16:00 +21°C° 0.6 mm 2 mps 559 mmHg 95%
17:00 +21°C° 0.6 mm 1 mps 558 mmHg 96%
18:00 +20°C° 0.6 mm 1 mps 558 mmHg 98%
19:00 +20°C° 0.7 mm 1 mps 559 mmHg 98%
20:00 +19°C° 0.7 mm 1 mps 559 mmHg 98%
21:00 +19°C° 0.7 mm 1 mps 560 mmHg 99%
22:00 +19°C° 0.8 mm 1 mps 560 mmHg 98%
23:00 +19°C° 0.8 mm 1 mps 560 mmHg 98%

17 August, Monday

Time Temperature Precipitation Wind Pressure Humidity
00:00 +16°C° 0.8 mm 0 mps 560 mmHg 98%
01:00 +16°C° 0.5 mm 0 mps 559 mmHg 98%
02:00 +16°C° 0.5 mm 0 mps 559 mmHg 97%
03:00 +16°C° 0.5 mm 0 mps 559 mmHg 96%
04:00 +16°C° 0 mm 0 mps 559 mmHg 95%
05:00 +16°C° 0 mm 0 mps 559 mmHg 94%
06:00 +16°C° 0 mm 0 mps 559 mmHg 93%
07:00 +20°C° 0 mm 1 mps 560 mmHg 88%
08:00 +22°C° 0 mm 1 mps 561 mmHg 83%
09:00 +23°C° 0 mm 1 mps 562 mmHg 78%
10:00 +24°C° 0.4 mm 1 mps 562 mmHg 77%
11:00 +25°C° 0.4 mm 2 mps 562 mmHg 77%
12:00 +25°C° 0.4 mm 2 mps 562 mmHg 76%
13:00 +24°C° 1.2 mm 2 mps 561 mmHg 81%
14:00 +23°C° 1.2 mm 2 mps 560 mmHg 87%
15:00 +22°C° 1.2 mm 1 mps 559 mmHg 92%
16:00 +22°C° 1 mm 1 mps 559 mmHg 94%
17:00 +21°C° 1 mm 1 mps 558 mmHg 95%
18:00 +21°C° 1 mm 1 mps 558 mmHg 97%
19:00 +20°C° 0.8 mm 1 mps 559 mmHg 98%
20:00 +20°C° 0.8 mm 1 mps 559 mmHg 98%
21:00 +19°C° 0.8 mm 1 mps 560 mmHg 99%
22:00 +19°C° 1.2 mm 1 mps 560 mmHg 99%
23:00 +19°C° 1.2 mm 1 mps 560 mmHg 99%
Show more